カタログに戻る

STARLINK-33653

運用中通信VLEO
NORAD 63380·PAYLOAD·🇺🇸 United States

打ち上げ Mar 26, 2025 から Vandenberg Space Force Base

Loading…

次のパス (今後24時間)

TLE

最新Source: CelesTrak SupGP

元期: Sep 14, 2026, 21:30 UTC

1 63380C 25063T   26257.89631944  .00046369  00000+0  14912-2 0  2575
2 63380  53.1578 252.7418 0001428  89.3007 145.4118 15.31676586    15

AllMySatでSTARLINK-33653をリアルタイム追跡

Download on the App Store